Location: ????????
(60.4333°N, 46.4710°E)
Time: 19:51:49
(UTC+00:00)

Helios 1A Rocket - Pass Details

Date: 25 November 2020
Orbit: 564 x 585 km, 98.3° (Epoch: 17 January)

Event Time Altitude Azimuth Distance (km) Brightness Sun altitude
Exits shadow 15:33:52 - 181° (S) 2,095 5.8 -24.5°
Reaches altitude 10° 15:34:26 10° 183° (S) 1,863 5.5 -24.6°
Maximum altitude 15:38:21 48° 259° (WSW) 747 3.8 -25.1°
Drops below altitude 10° 15:42:17 10° 334° (NNW) 1,876 5.8 -25.6°
Sets 15:44:30 0° 341° (NNW) 2,779 6.7 -25.9°
